Gazipa?a Airport


Codes: LTGP/GZP
Name: Gazipa?a Airport
City: Gazipa?a
Country: Turkey
Elevation: 86 ft.

Photos at Gazipa?a Airport


   Photos courtesy of SpottingLog. You can add your own sightings and photos by signing up for a free trial today.



No photos found.

Weather at Gazipa?a Airport


Time (UTC)DescriptionTempratureWindCloud coverageVisibilityPressureHumidity
23-May-2024 21:00Scattered Clouds21°C9 mph, E40%10000m1008hPa83%
24-May-2024 00:00Scattered Clouds21°C7 mph, N28%10000m1007hPa77%
24-May-2024 03:00Few Clouds21°C2 mph, N13%10000m1007hPa71%
24-May-2024 06:00Clear Sky23°C2 mph, SW0%10000m1007hPa61%
24-May-2024 09:00Clear Sky24°C7 mph, SW0%10000m1007hPa55%
24-May-2024 12:00Clear Sky24°C4 mph, SW0%10000m1007hPa48%
24-May-2024 15:00Scattered Clouds24°C9 mph, W41%10000m1008hPa66%
24-May-2024 18:00Scattered Clouds22°C7 mph, E28%10000m1008hPa70%
24-May-2024 21:00Clear Sky22°C4 mph, NE0%10000m1008hPa59%
25-May-2024 00:00Clear Sky22°C2 mph, NE0%10000m1008hPa57%
25-May-2024 03:00Clear Sky22°C4 mph, NE0%10000m1008hPa55%
25-May-2024 06:00Clear Sky24°C4 mph, S0%10000m1008hPa48%
25-May-2024 09:00Clear Sky24°C9 mph, S0%10000m1009hPa58%
25-May-2024 12:00Clear Sky25°C7 mph, S0%10000m1008hPa59%
25-May-2024 15:00Clear Sky24°C4 mph, SW4%10000m1008hPa58%
25-May-2024 18:00Clear Sky23°C7 mph, NW2%10000m1009hPa67%
25-May-2024 21:00Few Clouds22°C4 mph, N22%10000m1009hPa71%
26-May-2024 00:00Few Clouds22°C2 mph, N14%10000m1009hPa67%
26-May-2024 03:00Scattered Clouds22°C7 mph, SE37%10000m1009hPa60%
26-May-2024 06:00Few Clouds23°C11 mph, S24%10000m1011hPa73%
26-May-2024 09:00Light Rain24°C11 mph, S89%10000m1011hPa72%
26-May-2024 12:00Broken Clouds24°C9 mph, S68%10000m1011hPa73%
26-May-2024 15:00Clear Sky23°C4 mph, S5%10000m1012hPa73%
26-May-2024 18:00Clear Sky22°C0 mph, SE5%10000m1012hPa77%
26-May-2024 21:00Scattered Clouds21°C2 mph, E34%10000m1012hPa73%
27-May-2024 00:00Few Clouds21°C4 mph, E18%10000m1011hPa69%
27-May-2024 03:00Clear Sky21°C4 mph, SE1%10000m1011hPa67%
27-May-2024 06:00Clear Sky23°C4 mph, S1%10000m1013hPa64%
27-May-2024 09:00Few Clouds24°C9 mph, SW15%10000m1013hPa64%
27-May-2024 12:00Scattered Clouds24°C9 mph, SE28%10000m1012hPa69%
27-May-2024 15:00Light Rain22°C13 mph, S100%10000m1013hPa69%
27-May-2024 18:00Light Rain21°C7 mph, NE100%10000m1011hPa77%
27-May-2024 21:00Broken Clouds21°C7 mph, NE80%10000m1012hPa75%
28-May-2024 00:00Scattered Clouds21°C4 mph, NE45%10000m1011hPa69%
28-May-2024 03:00Clear Sky20°C2 mph, NE10%10000m1012hPa67%
28-May-2024 06:00Clear Sky23°C4 mph, SW5%10000m1013hPa62%
28-May-2024 09:00Clear Sky24°C7 mph, SW0%10000m1013hPa63%
28-May-2024 12:00Clear Sky24°C9 mph, W0%10000m1012hPa57%
28-May-2024 15:00Clear Sky23°C11 mph, NW0%10000m1012hPa64%
28-May-2024 18:00Clear Sky22°C9 mph, NW0%10000m1012hPa77%